Regional Weather Roundup
Issued by NWS

Current Version | Previous Version | Text Only | Print | Product List | Glossary On
Versions: 1 2 3 4 5 6 7 8 9 10 11 12 13 14 15 16 17 18 19 20 21 22 23 24 25 26 27 28 29 30 31 32 33 34 35 36 37 38 39 40 41 42 43 44 45 46 47 48 49 50
000
ASHW40 PHFO 220910
RWRHI

WEATHER ROUNDUP FOR HAWAII
NATIONAL WEATHER SERVICE HONOLULU HI
1100 PM HST SUN SEP 21 2014

THIS IS AN AUTOMATED REPORT THAT HAS NOT BEEN QUALITY CONTROLLED.

NOTE..."FAIR" INDICATES FEW OR NO CLOUDS BELOW 12,000 FEET WITH NO
SIGNIFICANT WEATHER AND/OR OBSTRUCTIONS TO VISIBILITY.

* - THESE SITES REPORT LIMITED FIELDS

HIZ001>004-221000-
KAUAI-NIIHAU-

CITY           SKY/WX    TMP DP  RH WIND       PRES   REMARKS
LIHUE APT      MOCLDY    81  72  74 E12       30.05S
PORT ALLEN*      N/A     79 N/A N/A E7          N/A
POIPU*           N/A     81 N/A N/A NE6G13      N/A
PRINCEVILLE*   NOT AVBL
KOKOLE POINT*  NOT AVBL
MOLOAA DAIRY*  NOT AVBL
WAIMEA HTS*    NOT AVBL
PUU OPAE*      NOT AVBL
PUU LUA*       NOT AVBL
MAKAHA RIDGE*  NOT AVBL
$$

HIZ005>011-221000-
OAHU-

CITY           SKY/WX    TMP DP  RH WIND       PRES   REMARKS
HONOLULU       PTCLDY    82  70  66 NE7       30.03S
KALAELOA       CLEAR     78  70  76 CALM      30.05R
KANEOHE MCB    PTCLDY    81  72  75 E6        30.04S
WHEELER FIELD  NOT AVBL
BELLOWS*       NOT AVBL
KAHUKU*        NOT AVBL
WHEELER*       NOT AVBL
WAIANAE HARBOR NOT AVBL
DILLINGHAM*      N/A     75  70  83 E2          N/A
KAHUKU TRN*      N/A     77  72  83 E7G17       N/A
KAWAILOA*      NOT AVBL
KII*             N/A     81  73  78 E12G17      N/A
MAKUA RANGE*     N/A     79  72  78 E5          N/A
OAHU FOREST NW NOT AVBL
SCHOFIELD BRK*   N/A     72  70  94 MISG        N/A
SCHOFIELD S*   NOT AVBL
WAIANAE VLY*   NOT AVBL
KUAOKALA*      NOT AVBL
HONOULIUULI*   NOT AVBL
MOKUOLOE IS*     N/A    N/A N/A N/A MISG        N/A
PALEHUA*       NOT AVBL
WAIAWA PHB*    NOT AVBL
$$

HIZ012>013-221000-
MOLOKAI-

CITY           SKY/WX    TMP DP  RH WIND       PRES   REMARKS
MOLOKAI AIRPT  CLEAR     72  70  93 CALM      30.04S
KALAUPAPA      NOT AVBL
MAKAPULAPAI*   NOT AVBL
MOLOKAI 1*     NOT AVBL
PUU ALII*      NOT AVBL
$$

HIZ016-221000-
KAHOOLAWE-

CITY           SKY/WX    TMP DP  RH WIND       PRES   REMARKS
KAHOOLAWE*     NOT AVBL
HAKIOAWA*      NOT AVBL
HONOKANAIA*      N/A     82  70  67 NE14G26   30.03S
KANELOA*         N/A     79  72  78 E15G25    29.26R
KEALIALALO*    NOT AVBL
LUA MAKIKA*    NOT AVBL
$$

HIZ014>015-221000-
LANAI-

CITY           SKY/WX    TMP DP  RH WIND       PRES   REMARKS
LANAI CITY     FAIR      74  74 100 NE8       30.10R
LANAI 1*       NOT AVBL
$$

HIZ017>028-221000-
MAUI-

CITY           SKY/WX    TMP DP  RH WIND       PRES   REMARKS
KAHULUI        CLEAR     77  70  79 CALM      30.02S
KAPALUA-W MAUI NOT AVBL
HANA AIRPORT   PTCLDY    75  72  88 CALM      30.06F
HANA*          NOT AVBL
HALEAKALA SUMM   N/A     46  39  76 N17         N/A
MAALAEA BAY*   NOT AVBL
HALEAKALA*     NOT AVBL
KAUPO GAP*     NOT AVBL
KULA 1*          N/A     58  46  63 E1G8        N/A
$$

HIZ023>026-221000-
BIG ISLAND OF HAWAII COAST AND LOWER SLOPES-

CITY           SKY/WX    TMP DP  RH WIND       PRES   REMARKS
KAILUA KONA    PTCLDY    83  75  77 SW5       30.00R HX  90
HILO           CLOUDY    77  74  90 W5        30.03F
HONOKAA*       NOT AVBL
KAWAIHAE MWT*  NOT AVBL
KAWAIHAE*        N/A     82 N/A N/A NE2         N/A
SOUTH POINT*   NOT AVBL
UPOLU AIRPORT* NOT AVBL
KAMUELA*       SUNNY     68  64  88 NE15      30.14S
HAKALAU*         N/A     48  46  93 W3          N/A
KALOKO-HONOKO* NOT AVBL
PALI 2*          N/A     68  64  88 NE8G17      N/A
KEALAKOMO*       N/A     81  70  69 N13G18      N/A
KAUPULEHU*     NOT AVBL
KAPAPALA*        N/A     68  67  96 CALM        N/A
LOWER KAHUKU*  NOT AVBL
PUHE CS*       NOT AVBL
PUHO CS*       NOT AVBL
PTA KEAMUKU*     N/A     63  59  88 S6          N/A
WAIKOLOA*      NOT AVBL
$$

HIZ027>028-221000-
BIG ISLAND OF HAWAII INTERIOR AND SUMMMITS-

CITY           SKY/WX    TMP DP  RH WIND       PRES   REMARKS
BRADSHAW FIELD CLEAR     55  52  90 SE6       30.40F
MK VISITOR CEN NOT AVBL
MAUNA KEA*       N/A     36  27  69 E23         N/A  WCI  24
MAUNA LOA*     NOT AVBL
MAUNA LOA 1*   NOT AVBL
PTA KIPUKA*      N/A     57  57 100 SE2         N/A
PTA RANGE 17*    N/A     61  55  82 E7G13       N/A
PTA WEST*        N/A     63  57  82 SE8         N/A
NENE CABIN*    NOT AVBL
AHUMOA*        NOT AVBL
PTA PORTABLE*  NOT AVBL
PUU MALI*      NOT AVBL
$$

HIC003-221000-
NORTHWEST ISLANDS-

CITY           SKY/WX    TMP DP  RH WIND       PRES   REMARKS
MIDWAY ISLAND  PTCLDY    81  72  74 E17       30.10R
MIDWAY NOS*    NOT AVBL
FRENCH FRIGATE NOT AVBL
$$

PHZ110>124-180-221000-
BUOY REPORTS

STATION/POSITION TIME  TEMP    WIND        PRES    WAVE   SWELL
                       AIR SEA DIR/SP/G            HT/PER HT/DIR
                 (UTC) (F)     (DEG/KT/KT) (MB)    (FT/S) (FT/D)
BUOY 51001       NOT AVBL
BUOY 51101       NOT AVBL
BUOY 51100       0900   80 82  110/  6/  8 1017.8S
BUOY 51003       0800   82 83  100/ 12/ 14 1016.1R   4/ 5   3
BUOY 51004       0759   81 81   80/ 14/ 17 1015.6F   4/11   3/150
BARBERS PT BUOY  NOT AVBL
WAIMEA BAY BUOY  0900      83                N/A     3/ 9   2/340
KAILUA BAY BUOY  0900      82                N/A     4/ 9   2/ 70
LANAI BUOY       NOT AVBL
BARBERS PT 2     0900      83                N/A     3/11   2/170
PAUWELA MAUI     0900      81                N/A     4/11   2/ 10
HILO             0900      82                N/A     4/10   2/ 50
KANEOHE BAY BUOY NOT AVBL
HANALEI KAUAI    NOT AVBL
KAHULUI HARBOR   0900   80 84   20/  4/  6 1016.4S
HONOLULU HARBOR  0900   81      40/  4/  6 1017.3R
KILO NALU        NOT AVBL
HILO HARBOR      0900   76     220/  2/  4 1016.6F
MOKUOLOE         0900      86              1017.6S
NAWILIWILI       0900      84                N/A
WHOTS BUOY       NOT AVBL
BUOY 51028       NOT AVBL
$$

......................KEY........................................
  SKY/WX - SKY CONDITIONS/PRESENT WEATHER
  TMP    - TEMPERATURE IN FAHRENHEIT
  DWPT   - DEWPOINT IN FAHRENHEIT
  RH     - RELATIVE HUMIDITY IN PERCENT
  WIND   - DIRECTION AND SPEED /MPH FOR ISLANDS...KTS FOR BUOYS/
  PRES   - MEAN SEA LEVEL PRESSURE IN INCHES OF HG
  VSB    - VISIBILITY IN MILES
  HX     - HEAT INDEX
  WCI    - WIND CHILL INDEX
  VRB    - VARIABLE WIND DIRECTION
  N/A    - NOT AVAILABLE


USA.gov is the U.S. government's official web portal to all federal, state and local government web resources and services.